Nenana, AK

6:53 AM AKDT on March 25, 2017 (GMT -0800)
Nenana Municipal

Weather History for PANN - July, 2013

Change the Weather History Date:

Tuesday, July 30, 2013

  Actual Average Record
Temperature  
Mean Temperature 67 °F -  
Max Temperature 77 °F 63 °F 89 °F (1976)
Min Temperature 57 °F 48 °F 44 °F (2005)
Cooling Degree Days 2    
Growing Degree Days 17 (Base 50)    
Moisture  
Dew Point 52 °F    
Average Humidity 62    
Maximum Humidity 89    
Minimum Humidity 38    
Precipitation  
Precipitation 0.00 in - - ()
Sea Level Pressure  
Sea Level Pressure 30.16 in    
Wind  
Wind Speed 3 mph (WNW)    
Max Wind Speed 8 mph    
Max Gust Speed -    
Visibility 10 miles    
Events      
Averages and records for this station are not official NWS values.
T = Trace of Precipitation, MM = Missing Value Source: NWS Daily Summary

Daily Weather History Graph

Daily Weather History Graph

Search for Another Location

Airport or City:

Trip Planner

Search our weather history database for the weather conditions in past years. The results will help you decide how hot, cold, wet, or windy it might be!

Date:

Astronomy

Jul. 30, 2013 Rise Set
Actual Time 4:53 AM AKDT 11:09 PM AKDT
Civil Twilight 3:11 AM AKDT 12:47 AM AKDT
Nautical Twilight Sun does not rise Sun does not rise
Astronomical Twilight Sun does not rise Sun does not rise
Moon No Moon Rise 5:30 PM AKDT (7/30)
Length of Visible Light 21h 35m
Length of Day
18h 15m
Last Quarter, 39% of the Moon is Illuminated
Jul 30
Last Quarter
Aug 6
New
Aug 14
First Quarter
Aug 20
Full
Aug 28
Last Quarter

Hourly Weather History & Observations

Time (AKDT) Temp. Dew Point Humidity Pressure Visibility Wind Dir Wind Speed Gust Speed Precip Events Conditions
12:53 AM 62.1 °F 53.1 °F 72% 30.14 in 10.0 mi Calm Calm - N/A   Clear
1:53 AM 57.0 °F 52.0 °F 83% 30.15 in 10.0 mi Calm Calm - N/A   Partly Cloudy
2:53 AM 57.9 °F 52.0 °F 81% 30.16 in 10.0 mi Calm Calm - N/A   Mostly Cloudy
3:53 AM 55.0 °F 52.0 °F 89% 30.17 in 10.0 mi SW 4.6 mph - N/A   Mostly Cloudy
4:53 AM 55.9 °F 50.0 °F 80% 30.17 in 10.0 mi Calm Calm - N/A   Partly Cloudy
5:53 AM 55.0 °F 50.0 °F 83% 30.19 in 10.0 mi Calm Calm - N/A   Mostly Cloudy
6:53 AM 57.0 °F 51.1 °F 81% 30.19 in 10.0 mi Calm Calm - N/A   Clear
7:53 AM 60.1 °F 51.1 °F 72% 30.19 in 10.0 mi WNW 4.6 mph - N/A   Clear
8:53 AM 63.0 °F 51.1 °F 65% 30.19 in 10.0 mi NW 4.6 mph - N/A   Clear
9:53 AM 66.0 °F 52.0 °F 60% 30.19 in 10.0 mi NW 4.6 mph - N/A   Clear
10:53 AM 66.9 °F 52.0 °F 59% 30.20 in 10.0 mi WSW 5.8 mph - N/A   Clear
11:53 AM 69.1 °F 52.0 °F 54% 30.19 in 10.0 mi Variable 4.6 mph - N/A   Clear
12:53 PM 72.0 °F 52.0 °F 49% 30.19 in 10.0 mi West 8.1 mph - N/A   Clear
1:53 PM 73.0 °F 51.1 °F 46% 30.18 in 10.0 mi Variable 5.8 mph - N/A   Clear
2:53 PM 73.9 °F 51.1 °F 45% 30.17 in 10.0 mi West 8.1 mph - N/A   Clear
3:53 PM 75.0 °F 50.0 °F 41% 30.16 in 10.0 mi West 5.8 mph - N/A   Clear
4:53 PM 75.0 °F 50.0 °F 41% 30.16 in 10.0 mi Variable 4.6 mph - N/A   Partly Cloudy
5:53 PM 75.9 °F 48.9 °F 38% 30.14 in 10.0 mi Variable 5.8 mph - N/A   Clear
6:53 PM 75.9 °F 51.1 °F 42% 30.14 in 10.0 mi NW 6.9 mph - N/A   Clear
7:53 PM 73.9 °F 50.0 °F 43% 30.14 in 10.0 mi North 4.6 mph - N/A   Clear
8:53 PM 73.0 °F 50.0 °F 44% 30.14 in 10.0 mi NNW 4.6 mph - N/A   Clear
9:53 PM 70.0 °F 51.1 °F 51% 30.14 in 10.0 mi Calm Calm - N/A   Clear
10:53 PM 63.0 °F 53.1 °F 70% 30.15 in 10.0 mi Calm Calm - N/A   Clear
11:53 PM 57.9 °F 53.1 °F 84% 30.16 in 10.0 mi Calm Calm - N/A   Clear